Location: Corton
(51.1631°N, 2.0900°W)
Time: 09:36:23
(UTC+00:00)

Daily predictions for brighter satellites

Satellite Brightness Start Highest point End
(mag) Time Altitude Azimuth Time Altitude Azimuth Time Altitude Azimuth
STARLINK-1233 3.9 20:49:58 10° W 20:54:07 74° N 20:58:16 10° ENE
CZ-2C R/B 4.4 20:50:12 10° N 20:54:38 60° WNW 20:59:05 10° SSW
STARLINK-1112 3.7 20:50:38 10° WNW 20:54:47 73° SSW 20:58:55 10° ESE
STARLINK-1143 3.6 20:52:18 10° SW 20:56:23 63° SSE 21:00:30 10° ENE
Aureole 2 4.3 20:54:07 10° NNW 20:57:19 60° ENE 21:00:16 10° SE
STARLINK-1209 3.5 20:54:51 10° WNW 20:58:08 62° N 21:01:24 10° E
STARLINK-1204 3.9 20:54:58 10° W 20:59:07 72° N 21:03:15 10° ENE
STARLINK-1128 3.7 20:55:37 10° WNW 20:59:45 70° SSW 21:03:52 10° ESE
STARLINK-1241 3.6 20:57:17 10° WSW 21:01:24 67° SSE 21:05:32 10° ENE
deb Kosmos-1763 4.0 20:59:23 10° NNW 21:03:01 80° ENE 21:06:36 10° SSE
Cosmos 1300 Rocket 4.1 20:58:42 10° NNW 21:03:06 60° W 21:07:27 10° S
STARLINK-1238 3.9 20:59:58 10° W 21:04:07 71° N 21:08:16 10° ENE
STARLINK-1113 3.7 21:00:37 10° WNW 21:04:44 67° SSW 21:08:51 10° ESE
Aureole 2 Rocket 2.6 21:02:35 10° S 21:05:29 38° ESE 21:08:16 10° NE
STARLINK-1239 3.6 21:02:14 10° WSW 21:06:22 70° SSE 21:10:30 10° ENE
STARLINK-1201 4.0 21:04:58 10° W 21:09:06 70° N 21:13:15 10° ENE
STARLINK-1119 3.8 21:05:37 10° WNW 21:09:44 63° SSW 21:13:49 10° SE
Cosmos 1437 Rocket 2.6 21:06:52 10° S 21:10:38 74° E 21:14:28 10° NNE
STARLINK-1240 3.6 21:07:11 10° WSW 21:11:19 74° SSE 21:15:28 10° ENE
Cosmos 1378 4.1 21:10:03 10° SSE 21:13:19 30° E 21:16:35 10° NNE
STARLINK-1206 4.0 21:09:57 10° W 21:14:06 69° N 21:18:15 10° ENE
ISS -1.4 21:12:24 10° WSW 21:14:10 14° SW 21:15:55 10° S
STARLINK-1114 3.8 21:10:35 10° WNW 21:14:40 60° SSW 21:18:45 10° SE
Meteor 1-15 Rocket 4.4 21:09:18 10° NNW 21:15:17 86° ENE 21:21:13 10° SSE
STARLINK-1203 3.6 21:11:59 10° WSW 21:16:11 77° SSE 21:20:24 10° ENE
STARLINK-1216 3.6 21:12:09 10° WSW 21:16:17 77° SSE 21:20:26 10° ENE
Lacrosse 5 3.5 21:13:05 10° WNW 21:17:03 23° SW 21:21:00 10° S
Cosmos 304 Rocket 3.8 21:12:27 10° S 21:17:09 61° ESE 21:21:54 10° NNE
USA 215 4.0 21:11:27 10° E 21:17:48 56° N 21:24:09 10° WNW
NOSS 8 (E) 4.0 21:15:07 10° SW 21:18:15 71° SE 21:21:19 10° NE
STARLINK-1205 4.0 21:14:57 10° W 21:19:05 68° N 21:23:13 10° E
STARLINK-1130 (DARKSAT) 3.9 21:15:34 10° WNW 21:19:39 56° SSW 21:23:37 11° SE
STARLINK-1237 3.6 21:17:07 10° WSW 21:21:16 80° SSE 21:25:25 10° ENE
CENTAUR R/B 3.5 21:13:55 10° NW 21:21:33 61° NE 21:30:06 10° ESE
NOSS 2-2 (D) 3.9 21:18:21 10° S 21:21:34 32° ESE 21:25:10 10° ENE
CZ-2C R/B 4.1 21:17:27 10° N 21:22:45 44° WNW 21:28:03 10° SW
STARLINK-1218 4.0 21:19:57 10° W 21:24:05 67° N 21:28:14 10° E
STARLINK-1084 3.9 21:20:34 10° WNW 21:24:37 53° SSW 21:28:24 12° SE
ATLAS 3B R/B 3.8 21:18:25 10° NW 21:24:41 39° NNE 21:31:06 10° E
Cosmos 1674 Rocket 3.6 21:21:27 10° S 21:25:50 90° W 21:30:17 10° N
STARLINK-1202 3.6 21:22:06 10° WSW 21:26:15 84° SSE 21:30:25 10° ENE
SL-27 R/B 3.6 21:23:05 10° N 21:26:24 33° ENE 21:29:28 11° SE
NOSS 3-2 (C) 4.3 21:19:41 10° NW 21:26:55 67° NE 21:35:09 10° ESE
Cosmos 1378 Rocket 3.5 21:24:20 10° S 21:28:43 76° E 21:33:07 10° NNE
STARLINK-1254 4.0 21:24:56 10° W 21:29:04 67° N 21:33:13 10° E
Cosmos 1766 3.6 21:25:19 10° N 21:29:14 54° ENE 21:32:47 12° SSE
STARLINK-1098 4.0 21:25:33 10° WNW 21:29:35 50° SSW 21:33:11 12° SE
STARLINK-1231 4.0 21:29:55 10° W 21:34:03 67° N 21:38:11 10° E
STARLINK-1123 4.1 21:30:32 10° WNW 21:34:31 47° SSW 21:37:56 13° SE
STARLINK-1246 3.6 21:32:04 10° WSW 21:36:13 90° SSW 21:40:23 10° ENE
Cosmos 1900 4.4 21:31:27 10° NW 21:36:30 81° SW 21:41:01 13° SSE
IGS 5A 4.1 21:32:37 10° S 21:36:41 52° W 21:40:46 10° NNW
Cosmos 1943 Rocket 2.7 21:32:53 10° S 21:38:01 39° ESE 21:43:11 10° NE
Cosmos 2297 3.7 21:32:20 10° SSW 21:38:01 78° ESE 21:43:47 10° NNE
NOSS 2-2 (E) 3.2 21:35:13 10° SSW 21:38:45 57° SE 21:42:51 10° NE
STARLINK-1232 4.0 21:34:55 10° W 21:39:03 66° N 21:43:12 10° E
STARLINK-1097 4.2 21:35:33 10° WNW 21:39:31 44° SSW 21:42:45 14° SE
STARLINK-1224 3.6 21:37:02 10° WSW 21:41:11 88° NNW 21:45:21 10° ENE
Cosmos 2082 Rocket 3.8 21:36:37 10° NW 21:41:27 29° WSW 21:46:16 10° SSW
Cosmos 332 Rocket 4.4 21:36:47 10° SW 21:41:38 60° WNW 21:46:30 10° NNE
SeaSat 1 4.3 21:40:33 10° ENE 21:42:48 13° E 21:44:34 11° ESE
STARLINK-1208 4.0 21:39:53 10° W 21:44:02 66° N 21:48:10 10° E
SAR-Lupe-2 4.0 21:40:34 10° N 21:44:09 63° WNW 21:47:41 10° SSW
STARLINK-1099 4.2 21:40:32 10° WNW 21:44:27 42° SSW 21:47:31 15° SSE
Cosmos 1461 3.1 21:41:43 10° SW 21:45:54 78° NW 21:50:21 10° NE
STARLINK-1225 3.7 21:42:01 10° WSW 21:46:11 85° NNW 21:50:21 10° ENE
STARLINK-1212 3.0 21:44:15 10° WNW 21:47:22 73° NNE 21:50:28 10° E
STARLINK-1105 3.0 21:44:43 10° WNW 21:47:50 73° NNE 21:50:56 10° E
Cosmos 1975 Rocket 3.5 21:44:36 13° SSE 21:48:17 45° E 21:52:29 10° NNE
STARLINK-1247 3.0 21:45:35 10° WNW 21:48:43 73° NNE 21:51:51 10° E
STARLINK-1271 4.0 21:44:55 10° W 21:49:04 67° N 21:53:11 10° E
STARLINK-1227 3.0 21:46:05 10° WNW 21:49:12 73° NNE 21:52:18 10° E
Meteor 1-23 Rocket 4.4 21:43:41 10° SSW 21:49:23 79° WNW 21:55:03 10° N
STARLINK-1104 4.3 21:45:31 10° WNW 21:49:24 39° SW 21:52:18 16° SSE
BREEZE-M DEB (TANK) 4.1 21:32:45 10° SW 21:49:52 57° SSE 21:54:14 10° E
STARLINK-1226 3.0 21:46:57 10° WNW 21:50:04 74° N 21:53:12 10° E
BREEZE-M DEB (TANK) 2.9 21:46:15 10° W 21:50:52 72° S 21:54:23 10° E
STARLINK-1215 3.0 21:47:50 10° WNW 21:50:58 75° NNE 21:54:05 10° E
STARLINK-1230 3.7 21:47:00 10° WSW 21:51:10 82° NNW 21:55:19 10° ENE
STARLINK-1217 3.0 21:49:39 10° WNW 21:52:47 76° NNE 21:55:54 10° E
STARLINK-1229 3.0 21:50:34 10° WNW 21:53:42 76° NNE 21:56:50 10° E
STARLINK-1154 4.0 21:49:54 10° W 21:54:02 67° N 21:58:11 10° E
Cosmos 2369 Rocket 2.8 21:49:04 10° S 21:54:12 39° ESE 21:59:24 10° NE
STARLINK-1144 4.4 21:50:32 10° WNW 21:54:22 37° SW 21:57:06 17° SSE
STARLINK-1270 3.0 21:51:28 10° WNW 21:54:36 77° NNE 21:57:43 10° E
STARLINK-1243 3.7 21:52:00 10° WSW 21:56:10 80° NNW 22:00:19 10° ENE
STARLINK-1189 2.9 21:53:15 10° WNW 21:56:23 78° NNE 21:59:29 10° ESE
STARLINK-1188 2.9 21:54:10 10° WNW 21:57:18 78° NNE 22:00:22 10° ESE
STARLINK-1187 2.8 21:55:16 10° WNW 21:58:23 83° NNE 22:01:14 12° ESE
SPOT 5 3.3 21:53:31 12° S 21:58:26 70° WSW 22:03:49 10° NNW
STARLINK-1197 4.0 21:54:52 10° W 21:59:01 67° N 22:03:09 10° E
STARLINK-1191 2.9 21:56:37 10° WNW 21:59:44 80° NNE 22:02:39 11° ESE
ATLAS CENTAUR R/B 3.4 21:59:35 12° ESE 21:59:55 12° ESE 22:01:32 10° E
STARLINK-1221 2.9 21:57:34 10° WNW 22:00:41 80° NNE 22:03:35 12° ESE
STARLINK-1236 3.8 21:56:58 10° W 22:01:08 78° NNW 22:05:17 10° ENE
STARLINK-1222 2.9 21:58:25 10° WNW 22:01:32 81° NNE 22:04:23 12° ESE
STARLINK-1214 2.9 21:59:19 10° WNW 22:02:26 82° NNE 22:05:16 12° ESE
NOSS 2-2 (C) 3.1 21:59:45 10° SW 22:03:20 77° SE 22:07:29 10° NE
STARLINK-1198 4.0 21:59:51 10° W 22:04:00 68° N 22:08:08 10° E
EXPRESS MD2 3.8 22:00:32 10° WSW 22:04:04 60° SSE 22:11:10 10° E
Meteor 1-22 Rocket 4.4 21:58:13 10° NNW 22:04:10 82° W 22:09:05 14° S
ERS-1 Rocket 3.5 21:59:40 11° S 22:04:27 53° W 22:09:25 10° NNW
Cosmos 1025 Rocket 4.4 22:02:58 16° SE 22:05:18 25° E 22:08:48 10° NNE
Okean 2 3.4 22:02:00 13° S 22:05:35 73° E 22:09:45 10° NNE
Cosmos 2026 Rocket 4.1 22:00:23 13° S 22:06:03 63° E 22:12:21 10° NNE
BREEZE M DEB (TANK) 2.4 22:02:34 10° WSW 22:06:33 44° S 22:08:32 11° E
Cosmos 1553 Rocket 4.4 22:00:44 10° N 22:06:55 54° ENE 22:11:43 16° SSE
ATLAS 2AS CENTAUR R/B 3.7 22:00:30 10° S 22:07:22 35° ESE 22:14:21 10° NE
Cosmos 1953 3.9 22:04:51 10° NNE 22:08:08 24° ENE 22:10:41 14° ESE
STARLINK-1228 3.1 22:04:45 10° WNW 22:08:15 83° SSW 22:11:08 15° ESE
NOSS 3-2 (A) 4.2 22:00:58 10° NW 22:08:19 68° SW 22:15:11 16° SSE
STARLINK-1199 3.9 22:04:52 10° WNW 22:09:01 69° N 22:13:09 10° E
Cosmos 1805 4.0 22:05:16 10° NNW 22:09:04 49° W 22:12:24 13° SSW
Cosmos 1470 3.2 22:05:39 10° N 22:09:25 47° ENE 22:11:51 20° SE
Okean 1 Rocket 4.4 22:06:31 10° NNW 22:10:35 34° W 22:14:35 10° SSW
STARLINK-1235 2.9 22:07:29 10° WNW 22:10:44 83° SSW 22:13:12 16° ESE
STARLINK-1269 3.8 22:06:58 10° W 22:11:07 74° N 22:15:16 10° ENE
Resurs 01 Rocket 4.3 22:11:02 10° WSW 22:12:42 12° W 22:14:22 10° WNW
Cosmos 968 Rocket 3.6 22:08:33 10° NNW 22:13:44 71° ENE 22:17:31 18° SE
STARLINK-1210 3.9 22:09:50 10° WNW 22:13:59 70° N 22:18:07 10° E
STARLINK-1200 3.9 22:11:56 10° W 22:16:05 73° N 22:20:14 10° ENE
Cosmos 1455 Rocket 3.0 22:11:59 10° N 22:16:21 89° E 22:19:25 19° S
STARLINK-1219 3.9 22:14:49 10° WNW 22:18:57 71° N 22:23:06 10° E
USA 238 DEB 4.1 22:13:09 10° NW 22:20:10 58° SW 22:25:51 17° SSE
USA 238 4.1 22:13:15 10° NW 22:20:17 59° SW 22:25:58 17° SSE
STARLINK-1192 3.9 22:16:56 10° W 22:21:05 71° N 22:25:14 10° ENE
ATLAS 5 CENTAUR R/B 3.1 22:21:46 19° SE 22:21:46 19° SE 22:23:31 10° E
Cosmos 1758 3.6 22:18:55 10° N 22:22:57 58° ENE 22:25:25 22° SSE
Abrixas rocket 4.4 22:22:28 10° SW 22:23:18 11° SW 22:23:18 11° SW
STARLINK-1211 3.8 22:19:49 10° WNW 22:23:59 72° N 22:28:07 10° E
SL-4 R/B 3.0 22:21:05 10° SSW 22:25:22 34° SE 22:29:44 10° E
STARLINK-1244 3.9 22:21:55 10° W 22:26:04 70° N 22:30:13 10° ENE
Terra 2.4 22:23:15 15° S 22:27:03 51° W 22:31:43 10° NNW
Cosmos 1842 3.2 22:24:07 17° S 22:27:06 87° WNW 22:31:01 10° N
ERBS 4.4 22:24:33 10° WNW 22:27:32 30° N 22:30:31 10° ENE
STARLINK-1234 2.9 22:25:15 10° WNW 22:28:30 65° SSW 22:30:16 24° SE
Meteor 2-13 Rocket 4.5 22:23:31 14° S 22:28:50 79° E 22:35:02 10° NNE
STARLINK-1245 3.8 22:24:47 10° WNW 22:28:56 73° N 22:33:05 10° E
STARLINK-1138 3.9 22:26:55 10° W 22:31:04 69° N 22:35:12 10° ENE
Cosmos 1503 Rocket 4.1 22:28:33 10° NNW 22:33:54 76° ENE 22:37:35 21° SSE
STARLINK-1233 3.8 22:29:45 10° WNW 22:33:55 75° N 22:38:03 10° E
STARLINK-1209 3.1 22:31:25 10° WNW 22:34:40 58° SSW 22:36:13 27° SE
STARLINK-1143 3.9 22:31:53 10° W 22:36:02 68° N 22:40:10 10° E
STARLINK-1204 3.7 22:34:45 10° WNW 22:38:54 77° NNE 22:43:03 10° E
STARLINK-1241 4.0 22:36:55 10° W 22:41:04 68° N 22:45:12 10° E
STARLINK-1238 3.7 22:39:45 10° WNW 22:43:55 79° NNE 22:48:04 10° E
Cosmos 2263 4.2 22:39:19 15° SSW 22:43:57 64° ESE 22:49:31 10° NE
STARLINK-1239 4.0 22:41:54 10° W 22:46:02 67° N 22:50:11 10° E
Cosmos 1536 Rocket 3.8 22:45:44 25° SSE 22:48:04 55° E 22:52:21 10° NNE
STARLINK-1201 3.7 22:44:44 10° WNW 22:48:54 81° NNE 22:53:04 10° ESE
Cosmos 1674 4.4 22:48:20 17° ESE 22:49:37 19° E 22:52:23 10° NE
STARLINK-1240 4.0 22:46:52 10° W 22:51:01 67° N 22:55:09 10° E
Cosmos 1271 Rocket 2.7 22:49:29 25° S 22:51:39 79° ESE 22:55:37 10° NNE
Cosmos 1242 Rocket 2.7 22:49:25 21° SSW 22:51:46 71° WNW 22:55:28 10° N
Cosmos 1544 Rocket 4.0 22:48:51 10° NNW 22:53:06 55° W 22:55:47 21° SSW
Cosmos 1354 Rocket 4.0 22:47:53 10° NNW 22:53:14 87° WSW 22:56:35 23° SSE
STARLINK-1206 3.6 22:49:43 10° WNW 22:53:54 83° NNE 22:58:04 10° ESE
STARLINK-60 3.1 22:52:20 23° SSW 22:53:58 44° SSE 22:57:02 10° ENE
Meteor 1-21 4.3 22:50:09 15° SSW 22:54:51 79° WNW 23:00:29 10° N
STARLINK-1216 4.0 22:51:51 10° W 22:56:00 67° N 23:00:08 10° E
STARLINK-1203 4.0 22:51:55 10° W 22:56:07 67° N 23:00:19 10° E
COSMOS 2455 3.4 22:52:50 22° SSE 22:56:08 39° ESE 23:01:40 10° NE
Spot 4 3.8 22:53:29 24° SSE 22:56:28 87° ENE 23:01:20 10° NNW
Cosmos 1833 4.3 22:52:02 10° NW 22:57:40 68° WSW 23:01:10 23° SSE
STARLINK-1205 3.6 22:54:41 10° WNW 22:58:52 86° NNE 23:03:01 10° ESE
Cosmos 2297 Rocket 4.0 22:55:20 10° NNW 23:00:05 26° NE 23:04:49 10° E
USA 215 3.3 22:54:01 10° ESE 23:00:35 86° NNE 23:07:10 10° WNW
STARLINK-1237 4.0 22:56:51 10° W 23:01:00 66° N 23:05:08 10° E
SL-27 R/B 4.3 22:58:29 10° NW 23:01:21 23° WSW 23:03:01 16° SW
Cosmos 1707 2.6 22:59:44 27° S 23:01:45 83° ESE 23:05:40 10° NNE
Lacrosse 4 Rocket 4.3 23:00:56 10° N 23:03:23 14° NNE 23:05:47 10° ENE
STARLINK-1218 3.6 22:59:41 10° WNW 23:03:52 88° NNE 23:07:55 11° ESE
Helios 1A 4.3 23:01:35 17° ESE 23:04:11 32° ENE 23:07:56 10° N
Cosmos 1726 2.1 23:01:58 10° N 23:05:42 79° E 23:07:20 32° SSE
STARLINK-1202 4.0 23:01:51 10° W 23:05:59 66° N 23:10:07 10° E
Cosmos 1174 4.1 23:06:37 32° SE 23:07:05 33° ESE 23:10:30 10° NE
Timation 2 Rocket 4.4 23:01:33 10° NNW 23:07:51 58° NE 23:12:55 15° SE
STARLINK-1254 3.5 23:04:40 10° WNW 23:08:50 89° SSW 23:12:41 12° ESE
COSMOS 2487 2.3 23:05:43 10° NNW 23:09:13 89° ENE 23:10:32 36° SSE
ALOS 2 2.8 23:07:47 25° SE 23:10:12 62° ENE 23:14:34 10° N
CENTAUR R/B 3.5 23:04:44 10° NW 23:12:29 54° WSW 23:18:18 21° S
STARLINK-1231 3.5 23:09:38 10° WNW 23:13:48 86° SSW 23:17:27 13° ESE
Meteor 1-16 Rocket 4.1 23:09:01 10° NNW 23:14:36 85° ENE 23:17:49 25° SSE
Cosmos 1867 3.8 23:10:28 10° NW 23:15:48 55° WSW 23:18:45 26° S
STARLINK-1246 4.0 23:11:51 10° W 23:15:59 67° N 23:20:07 10° E
ATLAS 3B R/B 2.7 23:09:12 10° NW 23:16:00 81° SW 23:21:09 20° SE
EO 1 Del DPAF 3.3 23:13:38 10° N 23:17:25 72° WNW 23:19:29 25° SSW
STARLINK-1232 3.5 23:14:38 10° WNW 23:18:48 83° SSW 23:22:15 15° ESE
Cosmos 1606 Rocket 4.0 23:15:09 10° N 23:19:24 52° ENE 23:21:36 26° SE
Cosmos 1992 Rocket 4.0 23:16:14 18° SSW 23:20:07 85° WNW 23:25:23 10° NNE
STARLINK-1224 3.9 23:16:49 10° W 23:20:58 68° N 23:25:06 10° E
SeaSat 1 2.4 23:16:08 10° NNE 23:21:06 73° ESE 23:24:20 22° SSW
Cosmos 1943 Rocket 3.3 23:16:25 10° WSW 23:21:44 44° NW 23:27:07 10° NNE
STARLINK-1212 3.6 23:20:11 10° W 23:22:54 34° SW 23:22:54 34° SW
STARLINK-1105 3.7 23:20:40 10° W 23:23:20 34° SW 23:23:20 34° SW
STARLINK-1208 3.5 23:19:35 10° WNW 23:23:45 79° SSW 23:27:00 16° ESE
STARLINK-29 3.3 23:24:02 41° SE 23:24:02 41° SE 23:26:56 10° ENE
NOSS 5 (C) 4.3 23:21:03 10° NW 23:24:09 75° SW 23:25:32 35° SSE
STARLINK-1247 3.7 23:21:32 10° W 23:24:14 33° SW 23:24:14 33° SW
STARLINK-1227 3.7 23:22:02 10° W 23:24:39 33° SW 23:24:39 33° SW
STARLINK-1226 3.7 23:22:53 10° W 23:25:31 33° SW 23:25:31 33° SW
STARLINK-1225 3.9 23:21:49 10° W 23:25:58 68° N 23:30:07 10° E
ATLAS CENTAUR R/B 2.3 23:24:36 10° NW 23:26:25 33° NNE 23:29:10 10° E
STARLINK-1215 3.8 23:23:47 10° W 23:26:23 32° SW 23:26:23 32° SW
STARLINK-1217 3.8 23:25:37 10° W 23:28:07 31° SW 23:28:07 31° SW
STARLINK-1271 3.5 23:24:36 10° WNW 23:28:45 76° SSW 23:31:49 18° ESE
NOSS 3-4 (A) 3.4 23:23:53 13° SW 23:29:20 77° SE 23:35:47 10° NE
STARLINK-1229 3.9 23:26:32 10° W 23:29:01 30° SW 23:29:01 30° SW
NOSS 3-4 (C) 3.4 23:24:01 13° SW 23:29:26 77° SE 23:35:54 10° NE
STARLINK-1270 3.9 23:27:25 10° W 23:29:53 30° SW 23:29:53 30° SW
RESURS DK-1 3.3 23:29:48 27° SE 23:30:50 31° ESE 23:34:31 10° NE
STARLINK-1230 3.9 23:26:48 10° WNW 23:30:57 69° N 23:35:05 10° E
Meteor 2-10 4.4 23:27:02 10° NNW 23:31:56 51° W 23:34:44 24° SSW
STARLINK-1189 4.0 23:29:14 10° W 23:31:36 29° SW 23:31:36 29° SW
STARLINK-1188 4.0 23:30:09 10° W 23:32:29 28° SW 23:32:29 28° SW
Cosmos 2315 Rocket 4.0 23:26:51 10° N 23:33:06 83° ENE 23:36:59 25° SSE
STARLINK-1154 3.5 23:29:35 10° WNW 23:33:43 72° SSW 23:36:35 19° ESE
STARLINK-1187 4.3 23:31:19 10° W 23:33:23 25° WSW 23:33:23 25° WSW
STARLINK-1191 4.1 23:32:37 10° W 23:34:47 26° SW 23:34:47 26° SW
STARLINK-1243 3.9 23:31:48 10° WNW 23:35:57 70° N 23:40:06 10° E
STARLINK-1221 4.2 23:33:34 10° W 23:35:42 26° WSW 23:35:42 26° WSW
Cosmos 1340 Rocket 3.3 23:32:24 10° NNW 23:36:21 52° W 23:38:06 29° SSW
STARLINK-1222 4.2 23:34:26 10° W 23:36:31 25° WSW 23:36:31 25° WSW
Cosmos 1626 3.7 23:36:00 20° ESE 23:37:12 24° E 23:40:15 10° NE
Cosmos 2227 Rocket 3.5 23:32:02 10° NNW 23:37:19 37° NE 23:42:33 10° ESE
STARLINK-1214 4.2 23:35:20 10° W 23:37:23 25° WSW 23:37:23 25° WSW
Cosmos 2369 Rocket 3.2 23:32:44 10° SW 23:38:11 45° NW 23:43:37 10° NNE
ATLAS CENTAUR R/B 1.3 23:35:42 24° SSW 23:38:12 76° SE 23:42:18 10° NE
STARLINK-1197 3.5 23:34:32 10° WNW 23:38:40 69° SSW 23:41:21 21° SE
STARLINK-1236 3.8 23:36:46 10° WNW 23:40:56 71° N 23:45:04 10° E
Cosmos 1908 3.1 23:37:10 10° N 23:41:00 89° W 23:42:29 36° S
Cosmos 1025 Rocket 4.1 23:39:50 17° SW 23:42:43 39° WNW 23:46:48 10° N
Thor Agena Rocket 4.3 23:38:25 10° N 23:43:33 51° WNW 23:47:47 15° SW
STARLINK-1198 3.5 23:39:32 10° WNW 23:43:38 66° SSW 23:46:07 23° SE
Aureole 3 3.1 23:40:35 10° NNW 23:43:48 52° W 23:44:31 40° SW
Cosmos 1953 3.3 23:40:58 10° NNW 23:44:38 36° W 23:46:22 24° SW
STARLINK-1199 3.6 23:44:31 10° WNW 23:48:38 62° SSW 23:50:55 25° SE
SL-4 R/B 2.3 23:50:08 24° W 23:50:08 24° W 23:51:42 10° NW
Landsat 4 4.3 23:46:18 10° NNE 23:49:51 42° E 23:51:00 32° SE
Nimbus 7 Rocket 4.5 23:43:51 10° NNE 23:49:58 85° WNW 23:54:04 22° SSW
STARLINK-1269 3.8 23:46:45 10° WNW 23:50:55 74° N 23:55:04 10° E
Cosmos 1656 Rocket 4.1 23:46:09 13° SW 23:51:12 62° WNW 23:56:45 10° NNE
STARLINK-1210 3.6 23:49:30 10° WNW 23:53:35 59° SSW 23:55:41 27° SE
KORONAS-FOTON 3.7 23:52:25 36° S 23:53:53 87° ESE 23:57:47 10° N
